This demonstration page uses our WeatherBlox Daily Observations layout. Learn more.

39.01783, -85.05884

Hourly Observations for June 10, 2019

Temp ( °F °C ) Dew Point ( °F °C ) Humidity (%) Winds ( mph kmh ) Pressure ( in mb ) Visibility ( mi km ) Precip ( " mm )
12:04 am 00:04 Cloudy with Rain 72 22.2 70 21.1 94 94 Calm 29.88 1012 5 8.04672 0.02 0.508
12:11 am 00:11 Cloudy with Rain 72 22.2 70 21.1 94 94 SE 3 6 29.88 1012 4 6.437376 0.04 1.016
12:30 am 00:30 Cloudy with Light Rain 72 22.2 70 21.1 94 94 Calm 29.88 1012 7 11.265408 0.07 1.778
12:52 am 00:52 Cloudy with Light Rain 72 22.2 70 21.1 94 94 SE 8 13 29.85 1011 7 11.265408 0.09 2.286
1:52 am 01:52 Cloudy with Light Rain 71 21.7 68 20 90 90 SSE 9 15 29.85 1011 10 16.09344 0.001 0.001
2:03 am 02:03 Cloudy with Light Rain 71 21.7 68 20 90 90 SSE 8 13 29.88 1012 10 16.09344 0.01 0.254
2:17 am 02:17 Cloudy with Light Rain 71 21.7 68 20 90 90 SSE 9 15 29.85 1011 10 16.09344 0.02 0.508
2:52 am 02:52 Cloudy 70 21.1 68 20 93 93 SSE 7 11 29.85 1011 10 16.09344 0.02 0.508
3:52 am 03:52 Cloudy with Light Rain 70 21.1 68 20 93 93 S 5 7 29.83 1010 10 16.09344 0.02 0.508
4:07 am 04:07 Cloudy with Light Rain 70 21.1 68 20 93 93 S 5 7 29.85 1011 8 12.874752 0.001 0.001
4:52 am 04:52 Cloudy 70 21.1 68 20 93 93 SSW 5 7 29.83 1010 10 16.09344 0.001 0.001
5:52 am 05:52 Cloudy 70 21.1 68 20 93 93 SSW 5 7 29.83 1010 10 16.09344 0 0
6:03 am 06:03 Cloudy with Mist and Fog 70 21.1 68 20 93 93 SW 3 6 29.85 1011 1 1.609344 0 0
6:06 am 06:06 Cloudy with Mist and Fog 70 21.1 68 20 93 93 SW 5 7 29.85 1011 1 1.609344 0 0
6:52 am 06:52 Cloudy with Mist and Fog 70 21.1 68 20 93 93 WSW 3 6 29.85 1011 1 1.609344 0.001 0.001
7:33 am 07:33 Cloudy with Rain 71 21.7 68 20 90 90 WNW 12 19 29.88 1012 1 1.609344 0.03 0.762
7:52 am 07:52 Cloudy with Light Rain 71 21.7 68 20 90 90 WNW 10 17 29.85 1011 1 1.609344 0.07 1.778
7:55 am 07:55 Cloudy with Light Rain 71 21.7 68 20 90 90 WNW 13 20 29.88 1012 2.5 4.02336 0.001 0.001
8:14 am 08:14 Cloudy with Mist and Fog 71 21.7 68 20 90 90 NW 10 17 29.88 1012 6 9.656064 0.01 0.254
8:52 am 08:52 Cloudy 71 21.7 67 19.4 87 87 NW 13 20 29.88 1012 8 12.874752 0.01 0.254
9:52 am 09:52 Cloudy 71 21.7 66 18.9 84 84 NW 13 20 29.91 1013 10 16.09344 0 0
10:52 am 10:52 Cloudy 71 21.7 65 18.3 81 81 NW 13 20 29.91 1013 9 14.484096 0 0
11:03 am 11:03 Mostly Cloudy 72 22.2 65 18.3 79 79 NNW 16 26 29.94 1014 10 16.09344 0 0
11:52 am 11:52 Partly Cloudy 76 24.4 64 17.8 67 67 NW 17 28 29.91 1013 10 16.09344 0 0
12:52 pm 12:52 Cloudy 74 23.3 63 17.2 69 69 NW 14 22 29.94 1014 10 16.09344 0 0
1:52 pm 13:52 Mostly Cloudy 76 24.4 65 18.3 69 69 WNW 21 33 29.94 1014 10 16.09344 0 0
2:36 pm 14:36 Cloudy 73 22.8 64 17.8 74 74 WNW 23 37 29.97 1015 10 16.09344 0 0
2:52 pm 14:52 Cloudy 73 22.8 63 17.2 71 71 NW 25 41 29.97 1015 10 16.09344 0 0
3:52 pm 15:52 Cloudy 68 20 59 15 73 73 WNW 21 33 30 1016 10 16.09344 0 0
4:26 pm 16:26 Mostly Cloudy 70 21.1 57 13.9 64 64 NNW 18 30 30.03 1017 10 16.09344 0 0
4:52 pm 16:52 Partly Cloudy 71 21.7 55 12.8 57 57 NW 25 41 30.03 1017 10 16.09344 0 0
5:52 pm 17:52 Mostly Sunny 71 21.7 53 11.7 53 53 NNW 20 31 30.03 1017 10 16.09344 0 0
6:52 pm 18:52 Mostly Sunny 71 21.7 52 11.1 51 51 NW 13 20 30.03 1017 10 16.09344 0 0
7:52 pm 19:52 Sunny 70 21.1 47 8.3 44 44 NNW 17 28 30.06 1018 10 16.09344 0 0
8:52 pm 20:52 Sunny 66 18.9 47 8.3 50 50 NNW 10 17 30.09 1019 10 16.09344 0 0
9:52 pm 21:52 Clear 63 17.2 48 8.9 58 58 NNW 5 7 30.12 1020 10 16.09344 0 0
10:52 pm 22:52 Clear 61 16.1 47 8.3 60 60 N 6 9 30.15 1021 10 16.09344 0 0
11:52 pm 23:52 Clear 59 15 47 8.3 64 64 NNW 5 7 30.15 1021 10 16.09344 0 0

Powered by AerisWeather